IK5NLA Vaiano IT current weather conditions

sailwx.info

Wind from 279 at 4 knots

Air temperature 2.8° C
Dewpoint 0.8° C

Last reported at 2015-Feb-01 17:45 UTC.
Time now 2015-Feb-01 18:16 UTC

Location: N 43°58' E 011°06'.
View on Google Maps.

See reports from other nearby stations

  
Tides and Currents Weather Stations Pressure Air Temp Water Temp Dewpoint Dewpoint Depression Visibility Wind Speed Wind Dir Waves Ship Positions
date/time (UTC)wind fromknots sea level pressurealtimeterstation pressurevisibilityair tempwater tempwave heightnotes
2015-Feb-01 17:45 279 4 2.8
2015-Feb-01 17:40 272 4 2.8
2015-Feb-01 17:35 249 4 2.8
2015-Feb-01 17:30 290 4 2.8
2015-Feb-01 17:25 257 4 2.8
2015-Feb-01 17:20 261 4 2.8
2015-Feb-01 17:15 271 3 3.3
2015-Feb-01 17:10 262 3 3.3
2015-Feb-01 17:05 264 3 3.3
2015-Feb-01 17:00 246 3 3.3
2015-Feb-01 16:55 246 3 3.3
2015-Feb-01 16:50 256 4 3.3
2015-Feb-01 16:45 246 4 2.8
2015-Feb-01 16:40 281 3 2.8
2015-Feb-01 16:35 273 3 2.8
2015-Feb-01 16:30 267 4 3.3
2015-Feb-01 16:25 275 5 3.3
2015-Feb-01 16:20 273 3 2.8
2015-Feb-01 16:15 256 3 2.8
2015-Feb-01 16:10 272 4 2.8
2015-Feb-01 16:00 281 4 2.8
2015-Feb-01 15:55 284 4 2.8
2015-Feb-01 15:50 284 4 2.8
2015-Feb-01 15:35 259 6 3.3
2015-Feb-01 15:30 284 6 3.3
2015-Feb-01 15:20 256 5 3.3
2015-Feb-01 15:15 275 5 3.3
2015-Feb-01 15:10 246 4 3.3
2015-Feb-01 15:05 264 5 3.3
2015-Feb-01 15:00 273 6 3.3
2015-Feb-01 14:50 259 8 3.3
2015-Feb-01 14:45 267 8 3.3
2015-Feb-01 14:40 240 9 3.3
2015-Feb-01 14:35 242 6 3.9
2015-Feb-01 14:30 246 5 3.9
2015-Feb-01 14:25 267 6 3.9
2015-Feb-01 14:20 261 6 3.9
2015-Feb-01 14:16 266 6 3.9
2015-Feb-01 14:10 257 6 3.3
2015-Feb-01 14:01 259 6 3.3
2015-Feb-01 13:50 242 4 3.3
2015-Feb-01 13:45 269 5 3.3
2015-Feb-01 13:35 281 5 3.3
2015-Feb-01 13:30 218 5 3.3
2015-Feb-01 13:25 288 5 3.3
2015-Feb-01 13:15 278 4 3.3
2015-Feb-01 13:10 236 3 3.3
2015-Feb-01 12:55 284 5 3.3
2015-Feb-01 12:50 236 4 3.3
2015-Feb-01 12:35 265 4 2.8
2015-Feb-01 12:30 256 6 2.8
2015-Feb-01 12:25 284 8 2.8
2015-Feb-01 12:20 233 8 3.3
2015-Feb-01 12:10 268 7 3.9
2015-Feb-01 12:05 241 6 3.3
2015-Feb-01 11:50 187 4 3.9
2015-Feb-01 11:45 213 2 3.9
2015-Feb-01 11:40 230 3 3.9
2015-Feb-01 11:35 267 3 3.9
2015-Feb-01 11:30 186 2 3.9
2015-Feb-01 11:20 360 2 2.8
2015-Feb-01 11:10 360 2 2.8
2015-Feb-01 11:05 296 2 2.8
2015-Feb-01 11:00 288 2 2.8
2015-Feb-01 10:50 265 3 2.2
2015-Feb-01 10:45 234 4 2.2
2015-Feb-01 10:40 299 3 2.2
2015-Feb-01 10:30 257 1 3.3
2015-Feb-01 10:25 185 1 2.8
2015-Feb-01 10:20 136 1 2.2
2015-Feb-01 10:15 136 1 2.2
2015-Feb-01 10:10 040 1 2.2
2015-Feb-01 10:05 028 1 1.7
2015-Feb-01 09:55 308 0 1.7
2015-Feb-01 09:50 300 1.7
2015-Feb-01 09:40 300 2 1.1
2015-Feb-01 09:30 280 3 1.7
2015-Feb-01 09:25 281 1 1.7
2015-Feb-01 09:20 183 1 1.7
2015-Feb-01 09:10 090 1 1.7
2015-Feb-01 09:05 102 1 1.7
2015-Feb-01 08:55 070 3 1.7
2015-Feb-01 08:50 083 4 1.7
2015-Feb-01 08:45 086 5 1.7
2015-Feb-01 08:35 085 5 1.7
2015-Feb-01 08:30 040 6 1.7
2015-Feb-01 08:25 093 5 1.7
2015-Feb-01 08:20 072 4 1.7
2015-Feb-01 08:10 110 2 1.1
2015-Feb-01 08:05 099 2 1.1
2015-Feb-01 07:55 076 3 1.1
2015-Feb-01 07:50 088 3 1.1
2015-Feb-01 07:45 098 3 1.1
2015-Feb-01 07:40 064 3 1.1
2015-Feb-01 07:35 049 3 0.6
2015-Feb-01 07:30 040 3 0.6
2015-Feb-01 07:20 051 2 0.6
2015-Feb-01 07:15 086 2 0.6
2015-Feb-01 07:10 032 3 0.6
2015-Feb-01 06:55 355 4 0.6
2015-Feb-01 06:50 050 3 0.6
2015-Feb-01 06:45 042 1 0.6
2015-Feb-01 06:40 057 1 0.6
2015-Feb-01 06:35 234 2 0.6
2015-Feb-01 06:30 235 3 0.6
2015-Feb-01 06:25 253 4 0.6
2015-Feb-01 06:20 272 4 1.1
2015-Feb-01 06:16 246 3 1.1
2015-Feb-01 06:10 267 3 1.1
2015-Feb-01 06:05 258 3 1.1
2015-Feb-01 05:35 016 0 1.7
2015-Feb-01 05:30 016 1 1.7
2015-Feb-01 05:20 355 2 1.7
2015-Feb-01 05:15 355 2 1.7
2015-Feb-01 04:55 013 3 1.7
2015-Feb-01 04:45 022 3 1.1
2015-Feb-01 04:40 041 2 1.1
2015-Feb-01 04:25 085 3 1.1
2015-Feb-01 04:00 045 3 1.1
2015-Feb-01 03:55 029 3 1.1
2015-Feb-01 03:40 040 3 1.7
2015-Feb-01 03:30 022 1 1.7
2015-Feb-01 03:20 016 2 1.1
2015-Feb-01 03:15 015 1 1.1
2015-Feb-01 03:10 032 1 1.1
2015-Feb-01 02:50 323 1 1.1
2015-Feb-01 02:40 321 0 1.1
2015-Feb-01 02:35 321 0 1.1
2015-Feb-01 02:30 321 0 1.1
2015-Feb-01 02:25 321 0 1.1
2015-Feb-01 02:20 319 1.1
2015-Feb-01 02:15 319 0 1.1
2015-Feb-01 02:05 319 2 1.1
2015-Feb-01 02:00 319 1 1.1
2015-Feb-01 01:50 319 1 1.1
2015-Feb-01 01:45 319 1 1.1
2015-Feb-01 01:35 319 1 1.1
2015-Feb-01 01:30 319 1 1.1
2015-Feb-01 01:25 319 1 1.1
2015-Feb-01 01:15 318 1.1
2015-Feb-01 01:05 318 1.1
2015-Feb-01 01:00 318 1.1
2015-Feb-01 00:55 318 1.1
2015-Feb-01 00:50 318 1.1
2015-Feb-01 00:45 318 0 1.1
2015-Feb-01 00:40 318 1 1.1
2015-Feb-01 00:35 318 1 1.7
2015-Feb-01 00:25 259 1 1.7
2015-Feb-01 00:20 294 2 1.7
2015-Feb-01 00:15 296 3 1.7
2015-Jan-31 23:55 283 0 1.7
2015-Jan-31 23:45 284 1 1.7
2015-Jan-31 23:35 265 1 1.7
2015-Jan-31 23:25 264 1 2.2
2015-Jan-31 23:20 259 1 2.2
2015-Jan-31 23:15 259 1 2.2
2015-Jan-31 23:10 252 1 2.2
2015-Jan-31 23:05 242 1 2.2
2015-Jan-31 23:00 019 1 2.2
2015-Jan-31 22:50 028 1 2.8
2015-Jan-31 22:45 333 2 2.8
2015-Jan-31 22:40 333 3 2.8
2015-Jan-31 22:35 333 4 2.8
2015-Jan-31 22:30 331 4 2.2
2015-Jan-31 22:20 350 3 2.2
2015-Jan-31 22:15 024 3 2.2
2015-Jan-31 22:10 041 2 2.2
2015-Jan-31 22:05 035 1 2.2
2015-Jan-31 22:00 048 1 2.8
2015-Jan-31 21:55 028 2 2.8
2015-Jan-31 21:45 017 1 2.2
2015-Jan-31 21:25 014 3 gusting 4 2.2
2015-Jan-31 21:20 025 2 2.2
2015-Jan-31 21:15 029 3 2.2
2015-Jan-31 21:00 021 2 2.2
2015-Jan-31 20:50 005 3 2.2
2015-Jan-31 20:45 355 3 2.8
2015-Jan-31 20:25 351 1 2.2
2015-Jan-31 20:20 350 0 2.2
2015-Jan-31 20:10 351 1 2.8
2015-Jan-31 20:00 351 2 2.2
2015-Jan-31 19:55 350 2 2.2
2015-Jan-31 19:45 344 2 2.2
2015-Jan-31 19:40 345 2 2.2
2015-Jan-31 19:25 345 3 2.8
2015-Jan-31 19:15 349 2 2.2
2015-Jan-31 19:10 349 2 2.2
2015-Jan-31 19:05 348 2 2.2
2015-Jan-31 18:50 342 2 2.2
2015-Jan-31 18:45 340 3 2.2
2015-Jan-31 18:35 338 3 2.2
2015-Jan-31 18:30 346 3 2.2
2015-Jan-31 18:25 343 3 2.2
2015-Jan-31 18:15 350 4 2.2
2015-Jan-31 17:55 351 3 1.7
2015-Jan-31 17:50 340 3 1.7
2015-Jan-31 17:45 342 3 1.7
2015-Jan-31 17:40 337 4 1.7
2015-Jan-31 17:35 331 4 1.7
2015-Jan-31 16:45 053 2 2.2
2015-Jan-31 16:40 053 2 2.2
2015-Jan-31 16:35 070 3 2.2
2015-Jan-31 16:30 067 4 2.2
2015-Jan-31 16:25 005 4 2.2
2015-Jan-31 16:21 040 3 2.2
2015-Jan-31 16:15 033 3 2.8
2015-Jan-31 16:10 021 3 2.8
2015-Jan-31 16:05 038 2 2.8
2015-Jan-31 16:00 038 1 2.8
2015-Jan-31 15:55 219 0 2.8
2015-Jan-31 15:50 219 0 2.8
2015-Jan-31 15:40 219 2.8
2015-Jan-31 15:15 219 0 3.3
2015-Jan-31 15:10 219 0 3.3
2015-Jan-31 15:05 219 1 3.3
2015-Jan-31 15:01 219 1 3.3
2015-Jan-31 14:45 298 1 3.3
2015-Jan-31 14:40 298 0 3.3
2015-Jan-31 14:35 298 0 3.3
2015-Jan-31 14:30 298 0 3.3
2015-Jan-31 14:25 298 0 3.3
2015-Jan-31 14:20 298 1 3.3
2015-Jan-31 14:15 298 2 3.3
2015-Jan-31 14:05 110 1 2.8
2015-Jan-31 14:01 110 0 2.8
2015-Jan-31 13:55 110 0 2.8
2015-Jan-31 13:50 110 1 2.8
2015-Jan-31 13:35 032 2 2.8
2015-Jan-31 13:20 115 2 2.8
2015-Jan-31 13:15 098 4 3.3
2015-Jan-31 13:10 323 8 3.3
2015-Jan-31 13:05 337 10 3.3
2015-Jan-31 13:01 286 9 2.8
2015-Jan-31 12:55 281 9 2.8
2015-Jan-31 12:50 303 8 2.8
2015-Jan-31 12:45 304 8 2.8
2015-Jan-31 12:35 284 6 2.8
2015-Jan-31 12:25 261 3 2.8
2015-Jan-31 12:15 226 3 2.8
2015-Jan-31 12:00 225 3 3.3
2015-Jan-31 11:55 214 3 3.3
2015-Jan-31 11:45 232 4 3.3
2015-Jan-31 11:40 250 4 3.3
2015-Jan-31 11:35 218 4 3.9
2015-Jan-31 11:25 215 3 3.9
2015-Jan-31 11:20 280 3 3.9
2015-Jan-31 11:15 281 2 3.9
2015-Jan-31 11:10 217 1 3.9
2015-Jan-31 11:05 165 0 3.9
2015-Jan-31 11:01 159 1 3.9
2015-Jan-31 10:55 159 1 3.9
2015-Jan-31 10:46 157 0 3.9
2015-Jan-31 10:40 115 1 4.4
2015-Jan-31 10:25 107 0 3.9
2015-Jan-31 10:20 105 1 3.3
2015-Jan-31 10:15 096 1 3.3
2015-Jan-31 10:05 066 1 3.3
2015-Jan-31 09:55 059 2 3.3
2015-Jan-31 09:50 075 2 3.3
2015-Jan-31 09:45 146 1 3.9
2015-Jan-31 09:40 123 1 4.4
2015-Jan-31 09:35 109 1 4.4
2015-Jan-31 09:30 109 2 3.9
2015-Jan-31 09:15 059 0 4.4
2015-Jan-31 09:10 052 1 3.9
2015-Jan-31 08:50 119 1 2.8
2015-Jan-31 08:45 119 0 2.8
2015-Jan-31 08:40 121 1 3.3
2015-Jan-31 08:30 118 1 3.9
2015-Jan-31 08:25 069 1 4.4
2015-Jan-31 08:15 281 0 3.3
2015-Jan-31 08:05 281 4.4
2015-Jan-31 08:01 281 0 4.4
2015-Jan-31 07:55 281 0 4.4
2015-Jan-31 07:45 281 1 3.3
2015-Jan-31 07:40 281 1 2.8
2015-Jan-31 07:35 281 1 2.2
2015-Jan-31 07:30 010 1 2.2
2015-Jan-31 07:25 010 1 2.2
2015-Jan-31 07:15 010 2 1.7
2015-Jan-31 07:01 347 2 1.7
2015-Jan-31 06:55 360 3 1.1
2015-Jan-31 06:50 028 4 1.1
2015-Jan-31 06:45 022 4 1.1
2015-Jan-31 06:40 022 4 1.1
2015-Jan-31 06:35 019 3 1.1
2015-Jan-31 06:30 022 2 1.1
2015-Jan-31 06:25 034 1 1.1
2015-Jan-31 06:20 034 1 1.1
2015-Jan-31 06:10 349 2 1.1
2015-Jan-31 06:05 348 2 1.1
2015-Jan-31 05:55 283 1 1.1
2015-Jan-31 05:50 283 1 1.1
2015-Jan-31 05:40 281 0 1.1
2015-Jan-31 05:30 281 0 1.1
2015-Jan-31 05:25 281 1.1
2015-Jan-31 05:20 281 1.1
2015-Jan-31 05:15 281 0 1.1
2015-Jan-31 05:10 281 0 1.1
2015-Jan-31 05:05 281 0 1.1
2015-Jan-31 04:45 281 2 1.7
2015-Jan-31 04:35 290 2 1.7
2015-Jan-31 04:30 304 0 1.7
2015-Jan-31 04:20 304 0 1.7
2015-Jan-31 04:15 304 2 1.7
2015-Jan-31 04:10 305 2 1.7
2015-Jan-31 04:05 307 1 1.7
2015-Jan-31 03:55 307 1 1.7
2015-Jan-31 03:50 309 0 1.1
2015-Jan-31 03:40 310 1 1.1
2015-Jan-31 03:35 309 0 1.1
2015-Jan-31 03:30 309 0 1.1
2015-Jan-31 03:25 292 1.1
2015-Jan-31 03:20 292 0 1.1
2015-Jan-31 03:15 292 0 1.7
2015-Jan-31 03:05 294 1.7
2015-Jan-31 03:00 294 0 1.7
2015-Jan-31 02:50 294 0 1.7
2015-Jan-31 02:45 254 0 1.7
2015-Jan-31 02:40 254 2 1.7
2015-Jan-31 02:30 290 2 2.2
2015-Jan-31 01:55 286 1 1.7
2015-Jan-31 01:50 284 3 1.7
2015-Jan-31 01:45 296 2 1.1
2015-Jan-31 01:35 350 0 1.1
2015-Jan-31 01:25 350 2 1.1
2015-Jan-31 01:10 350 1.7
2015-Jan-31 01:05 350 0 1.7
2015-Jan-31 01:01 350 1 1.7
2015-Jan-31 00:45 350 2 1.1
2015-Jan-31 00:40 350 2 1.1
2015-Jan-31 00:25 351 1 1.1
2015-Jan-31 00:20 350 1 1.1
2015-Jan-31 00:15 351 0 1.1
2015-Jan-31 00:10 351 1 1.1
2015-Jan-31 00:00 351 1 0.6
2015-Jan-30 23:55 042 0 1.1
2015-Jan-30 23:50 045 0 1.1
2015-Jan-30 23:40 005 2 0.6
2015-Jan-30 23:30 018 2 0.6
2015-Jan-30 23:15 022 1 0.6
2015-Jan-30 23:10 040 1 0.6
2015-Jan-30 23:05 065 0 1.1
2015-Jan-30 22:55 088 0 1.7
2015-Jan-30 22:50 088 1 1.7
2015-Jan-30 22:35 360 2 1.7
2015-Jan-30 22:25 046 2 1.1
2015-Jan-30 22:20 076 2 1.7
2015-Jan-30 22:15 254 4 1.7
2015-Jan-30 22:05 265 4 1.7
2015-Jan-30 22:00 272 4 1.7
2015-Jan-30 21:55 280 4 1.7
2015-Jan-30 21:50 294 4 1.7
2015-Jan-30 21:45 263 4 1.7
2015-Jan-30 21:40 281 4 1.7
2015-Jan-30 19:10 271 3 3.3
2015-Jan-30 19:05 260 4 3.9
2015-Jan-30 19:01 258 4 3.9
2015-Jan-30 18:55 253 2 3.9
2015-Jan-30 18:50 246 2 3.9
2015-Jan-30 18:45 250 2 3.3
2015-Jan-30 18:35 286 1 3.9
2015-Jan-30 18:25 317 3 3.9
2015-Jan-30 18:15 283 4 3.9
2015-Jan-30 18:00 295 4 3.3